Change the Weather History Date:

Wednesday, January 23, 2013

  Actual Average Record
Temperature  
Mean Temperature 12 °F 30 °F  
Max Temperature 20 °F 38 °F 60 °F (1970)
Min Temperature 4 °F 22 °F -14 °F (1962)
Degree Days  
Heating Degree Days 53 35  
Month to date heating degree days 1128 824  
Since 1 July heating degree days 2943 3118  
Cooling Degree Days 0 0  
Month to date cooling degree days 0 0  
Year to date cooling degree days 0 0  
Moisture  
Dew Point 9 °F    
Average Humidity 83    
Maximum Humidity 92    
Minimum Humidity 73    
Precipitation  
Precipitation T in 0.04 in 0.52 in (1967)
Month to date precipitation 0.59 0.95  
Year to date precipitation 0.59 0.95  
Snow  
Snow T in 0.30 in 5.50 in (1950)
Month to date snowfall 10.5 9.6  
Since 1 July snowfall 39.1 31.8  
Snow Depth 4.00 in    
Sea Level Pressure  
Sea Level Pressure 30.45 in    
Wind  
Wind Speed 4 mph (NNW)    
Max Wind Speed 10 mph    
Max Gust Speed 12 mph    
Visibility 4 miles    
Events Snow    
T = Trace of Precipitation, MM = Missing Value Source: NWS Daily Summary

Daily Weather History Graph

Daily Weather History Graph

Search for Another Location

Airport or City:

Trip Planner

Search our weather history database for the weather conditions in past years. The results will help you decide how hot, cold, wet, or windy it might be!

Date:

Astronomy

Jan. 23, 2013 Rise Set
Actual Time 7:45 AM MST 5:34 PM MST
Civil Twilight 7:15 AM MST 6:04 PM MST
Nautical Twilight 6:42 AM MST 6:37 PM MST
Astronomical Twilight 6:09 AM MST 7:10 PM MST
Moon 2:48 PM MST (1/23) 4:59 AM MST (1/23)
Length of Visible Light 10h 48m
Length of Day
9h 49m
Waxing Gibbous, 89% of the Moon is Illuminated
Jan 23
Waxing Gibbous
Jan 26
Full
Feb 3
Last Quarter
Feb 10
New
Feb 17
First Quarter

Hourly Weather History & Observations

Time (MST) Temp. Windchill Dew Point Humidity Pressure Visibility Wind Dir Wind Speed Gust Speed Precip Events Conditions
12:31 AM 9.0 °F -0.9 °F 5.0 °F 84% 30.38 in 5.0 mi WNW 5.8 mph - N/A   Mostly Cloudy
12:53 AM 7.0 °F -4.5 °F 3.9 °F 87% 30.56 in 5.0 mi North 6.9 mph - N/A   Mostly Cloudy
1:53 AM 6.1 °F -2.8 °F 3.0 °F 87% 30.55 in 3.0 mi ENE 4.6 mph - 0.00 in   Mostly Cloudy
2:15 AM 8.1 °F - 6.1 °F 92% 30.37 in 5.0 mi Calm Calm - N/A   Scattered Clouds
2:53 AM 9.0 °F - 6.1 °F 88% 30.51 in 5.0 mi Calm Calm - N/A   Partly Cloudy
3:53 AM 6.1 °F -7.8 °F 3.0 °F 87% 30.56 in 5.0 mi NW 9.2 mph - N/A   Partly Cloudy
4:09 AM 5.0 °F -8.1 °F 1.9 °F 87% 30.38 in 1.0 mi North 8.1 mph - 0.00 in Snow Light Snow
4:32 AM 5.0 °F - 1.9 °F 87% 30.37 in 3.0 mi Calm Calm - 0.00 in   Mostly Cloudy
4:53 AM 7.0 °F - 5.0 °F 92% 30.55 in 3.0 mi Calm Calm - 0.00 in   Partly Cloudy
5:28 AM 9.0 °F 0.6 °F 6.1 °F 88% 30.37 in 3.0 mi SW 4.6 mph - N/A   Mostly Cloudy
5:53 AM 10.0 °F - 7.0 °F 87% 30.54 in 3.0 mi Calm Calm - N/A   Mostly Cloudy
6:42 AM 10.0 °F 3.6 °F 7.0 °F 87% 30.36 in 3.0 mi South 3.5 mph - N/A   Partly Cloudy
6:53 AM 10.0 °F 1.8 °F 8.1 °F 92% 30.55 in 3.0 mi SE 4.6 mph - N/A   Partly Cloudy
7:44 AM 10.0 °F 0.4 °F 7.0 °F 87% 30.33 in 4.0 mi SSE 5.8 mph - N/A   Scattered Clouds
7:53 AM 10.9 °F 4.7 °F 8.1 °F 88% 30.52 in 4.0 mi South 3.5 mph - N/A   Scattered Clouds
8:53 AM 8.1 °F -4.3 °F 5.0 °F 87% 30.55 in 4.0 mi North 8.1 mph - N/A   Mostly Cloudy
9:53 AM 10.9 °F -0.8 °F 8.1 °F 88% 30.56 in 3.0 mi NNW 8.1 mph - N/A   Mostly Cloudy
10:04 AM 12.0 °F 1.5 °F 9.0 °F 88% 30.37 in 3.0 mi NNE 6.9 mph - N/A   Mostly Cloudy
10:35 AM 12.9 °F 5.2 °F 10.9 °F 92% 30.38 in 3.0 mi NW 4.6 mph - N/A   Mostly Cloudy
10:45 AM 14.0 °F 6.5 °F 10.9 °F 88% 30.38 in 3.0 mi NNE 4.6 mph - N/A   Mostly Cloudy
10:53 AM 14.0 °F 8.2 °F 10.9 °F 88% 30.56 in 3.0 mi North 3.5 mph - N/A   Mostly Cloudy
11:00 AM 15.1 °F 9.4 °F 10.9 °F 84% 30.38 in 3.0 mi NNW 3.5 mph - N/A   Mostly Cloudy
11:18 AM 16.0 °F 10.4 °F 12.0 °F 84% 30.37 in 3.0 mi NNW 3.5 mph - N/A   Mostly Cloudy
11:25 AM 16.0 °F 10.4 °F 12.0 °F 84% 30.38 in 3.0 mi NW 3.5 mph - N/A   Mostly Cloudy
11:53 AM 17.1 °F 11.7 °F 12.0 °F 81% 30.54 in 3.0 mi North 3.5 mph - N/A   Haze
12:53 PM 19.0 °F 13.9 °F 12.0 °F 74% 30.49 in 3.0 mi West 3.5 mph - N/A   Haze
1:53 PM 18.0 °F 11.1 °F 12.0 °F 78% 30.47 in 6.0 mi North 4.6 mph - N/A   Haze
2:53 PM 19.9 °F 12.1 °F 12.9 °F 74% 30.43 in 7.0 mi North 5.8 mph - N/A   Mostly Cloudy
3:53 PM 18.0 °F 7.7 °F 12.9 °F 81% 30.46 in 6.0 mi North 8.1 mph - N/A   Haze
4:53 PM 17.1 °F 8.7 °F 10.9 °F 77% 30.45 in 5.0 mi North 5.8 mph - N/A   Haze
5:53 PM 16.0 °F 4.4 °F 12.0 °F 84% 30.45 in 5.0 mi North 9.2 mph - N/A   Mostly Cloudy
6:53 PM 15.1 °F 9.4 °F 10.9 °F 84% 30.45 in 4.0 mi West 3.5 mph - N/A   Mostly Cloudy
7:53 PM 16.0 °F 8.8 °F 12.0 °F 84% 30.45 in 5.0 mi North 4.6 mph - N/A   Mostly Cloudy
8:53 PM 14.0 °F 8.2 °F 12.0 °F 92% 30.44 in 4.0 mi North 3.5 mph - N/A   Scattered Clouds
9:53 PM 15.1 °F - 12.0 °F 88% 30.43 in 4.0 mi Calm Calm - N/A   Mostly Cloudy
10:20 PM 15.1 °F 7.7 °F 12.0 °F 88% 30.28 in 4.0 mi WNW 4.6 mph - N/A   Mostly Cloudy
10:53 PM 12.0 °F 4.1 °F 9.0 °F 88% 30.43 in 4.0 mi NNW 4.6 mph - N/A   Mostly Cloudy
11:40 PM 15.1 °F - 12.0 °F 88% 30.29 in 3.0 mi Calm Calm - N/A   Mostly Cloudy
11:53 PM 15.1 °F - 12.0 °F 88% 30.43 in 3.0 mi Calm Calm - N/A   Mostly Cloudy